DateTimeUTC,F1_A11,F1_S11,BsB_S11,BsG_S11,BsR_S11,BbsB_S11,BbsG_S11,BbsR_S11,BaB_A11,BaG_A11,BaR_A11,Tu_S11,T_S11,Uu_S11,U_S11,P_S11,T1_A11
2021-02-28T14:00:00Z,00000200,21000000,,,,,,,0000.01,0000.41,0000.16,17.1,24.5,,00.0,0631.0,31.0
2021-02-28T14:01:00Z,00000200,21000000,,,,,,,0000.19,0000.14,0000.21,17.2,24.5,,00.0,0631.0,31.0
2021-02-28T14:02:00Z,00000200,21000000,,,,,,,0000.01,-000.26,0000.07,17.2,24.5,,00.0,0631.0,31.0
2021-02-28T14:03:00Z,00000200,61000000,,,,,,,0000.49,0000.41,0000.04,17.2,24.5,,00.0,0631.0,31.0
2021-02-28T14:04:00Z,00000200,41000000,-000.47,0000.03,-000.10,0000.14,-000.01,-000.20,0000.11,0000.25,0000.15,17.5,24.4,,00.0,0631.9,31.1
2021-02-28T14:05:00Z,00000200,01000000,0000.10,-000.11,-000.23,-000.30,-000.14,0000.00,0000.36,-000.08,0000.40,17.5,24.4,,00.0,0632.0,31.0
2021-02-28T14:06:00Z,00000200,01000000,-000.20,0000.04,0000.12,0000.67,0000.12,0000.32,-000.06,0000.50,-000.15,17.5,24.3,,00.0,0632.0,31.0
2021-02-28T14:07:00Z,00000200,01000000,0000.21,-000.01,-000.04,0000.43,-000.01,-000.19,0000.22,0000.03,0000.16,17.5,24.3,,00.0,0632.0,31.0
2021-02-28T14:08:00Z,00000200,01000000,0000.01,0000.05,-000.04,0000.25,0000.08,0000.06,0000.00,0000.18,0000.03,17.5,24.3,,00.0,0632.0,31.0
2021-02-28T14:09:00Z,00000200,01000000,-000.02,-000.08,0000.03,0000.37,0000.08,0000.15,-000.52,0000.07,-000.23,17.5,24.3,,00.0,0632.1,31.0
2021-02-28T14:10:00Z,00000200,01000000,0000.17,0000.08,0000.15,0000.11,-000.02,-000.08,0000.59,0000.08,0000.43,17.5,24.3,,00.0,0632.0,31.0
2021-02-28T14:11:00Z,00000200,01000000,-000.30,0000.14,-000.07,0000.44,0000.16,0000.12,-000.13,-000.45,-000.49,17.5,24.3,,00.0,0632.0,31.0
2021-02-28T14:12:00Z,00000200,01000000,0000.12,-000.13,0000.26,0000.06,0000.10,-000.11,0000.35,0000.40,0000.43,17.5,24.3,,00.0,0632.0,31.0
2021-02-28T14:13:00Z,00000200,01000000,-000.46,0000.03,-000.18,-000.17,0000.23,-000.10,-000.08,-000.23,-000.36,17.5,24.3,,00.0,0632.0,31.0
2021-02-28T14:14:00Z,00000200,01000000,-000.11,-000.09,-000.02,0000.22,-000.01,0000.08,0000.00,0000.17,0000.36,17.5,24.3,,00.0,0632.0,31.0
2021-02-28T14:15:00Z,00000200,01000000,0000.06,0000.10,-000.31,0000.53,-000.13,-000.11,-000.20,0000.16,0000.01,17.5,24.3,,00.0,0632.0,31.0
2021-02-28T14:16:00Z,00000200,01000000,0000.26,-000.20,-000.14,0000.37,0000.21,-000.13,-000.14,-000.57,-000.49,17.6,24.3,,00.0,0632.0,31.1
2021-02-28T14:17:00Z,00000200,01000000,-000.31,0000.04,-000.12,0000.26,-000.11,-000.01,-000.14,-000.03,-000.10,17.6,24.3,,00.0,0632.1,31.0
2021-02-28T14:18:00Z,00000200,01000000,0000.20,0000.03,-000.07,0000.04,0000.12,0000.02,-000.03,-000.00,0000.06,17.6,24.3,,00.0,0632.1,31.0
2021-02-28T14:19:00Z,00000200,01000000,-000.22,0000.07,0000.03,0000.13,0000.10,-000.12,0000.00,-000.35,0000.18,17.6,24.3,,00.0,0632.1,31.0
2021-02-28T14:20:00Z,00000200,01000000,-000.09,-000.17,0000.31,-000.30,0000.22,-000.17,-000.23,-000.07,-000.23,17.6,24.3,,00.0,0632.1,31.0
2021-02-28T14:21:00Z,00000200,01000000,0000.08,-000.09,0000.23,0000.23,0000.14,0000.45,-000.15,-000.05,-000.13,17.6,24.3,,00.0,0632.2,31.0
2021-02-28T14:22:00Z,00000200,01000000,-000.50,-000.23,0000.32,0000.26,0000.12,0000.09,-000.30,-000.25,-000.14,17.6,24.3,,00.0,0632.3,31.0
2021-02-28T14:23:00Z,00000200,01000000,0000.43,-000.01,-000.13,0000.34,0000.01,-000.08,-000.28,-000.25,-000.03,17.5,24.3,,00.0,0632.3,31.0
2021-02-28T14:24:00Z,00000200,01000000,0000.73,-000.04,0000.06,0000.24,0000.07,0000.00,-000.28,-000.51,-000.25,17.5,24.3,,00.0,0632.3,31.0
2021-02-28T14:25:00Z,00000200,01000000,0000.47,0000.20,-000.25,-000.02,0000.04,0000.02,-000.26,-000.28,-000.23,17.5,24.3,,00.0,0632.3,31.0
2021-02-28T14:26:00Z,00000200,01000000,-000.11,0000.17,0000.07,0000.27,-000.03,-000.12,-000.23,0000.12,0000.10,17.5,24.3,,00.0,0632.3,31.0
2021-02-28T14:27:00Z,00000200,01000000,0000.48,-000.21,0000.02,-000.11,0000.00,0000.11,0000.04,0000.18,-000.30,17.5,24.3,,00.0,0632.3,31.0
2021-02-28T14:28:00Z,00000200,01000000,0000.19,0000.18,-000.14,-000.27,0000.24,-000.07,-000.28,-000.50,0000.11,17.5,24.3,,00.0,0632.3,31.0
2021-02-28T14:29:00Z,00000200,01000000,-000.65,0000.07,0000.07,0000.00,-000.12,-000.24,-000.21,-000.13,-000.38,17.5,24.3,,00.0,0632.3,31.0
2021-02-28T14:30:00Z,00000200,01000000,0000.03,-000.05,0000.03,0000.10,0000.20,-000.28,-000.05,-000.01,0000.24,17.5,24.3,,00.0,0632.3,31.0
2021-02-28T14:31:00Z,00000200,01000000,-000.16,-000.04,0000.11,0000.22,0000.17,0000.18,-000.08,0000.35,-000.11,17.6,24.3,,00.0,0632.3,31.0
2021-02-28T14:32:00Z,00000200,01000000,-000.41,0000.02,0000.11,0000.13,0000.17,0000.10,-000.14,-000.66,-000.03,17.6,24.3,,00.0,0632.4,31.0
2021-02-28T14:33:00Z,00000200,01000000,-000.78,0000.16,0000.03,0000.52,0000.16,-000.03,-000.00,0000.20,-000.37,17.6,24.3,,00.0,0632.4,31.0
2021-02-28T14:34:00Z,00000200,01000000,0000.01,0000.03,-000.04,0000.27,0000.05,0000.03,-000.18,0000.02,0000.29,17.6,24.3,,00.0,0632.4,31.0
2021-02-28T14:35:00Z,00000200,01000000,0000.09,-000.24,0000.16,0000.31,-000.15,0000.13,-000.10,-000.18,0000.10,17.6,24.3,,00.0,0632.5,31.1
2021-02-28T14:36:00Z,00000200,01000000,-000.37,-000.10,-000.21,0000.13,0000.24,-000.02,0000.31,0000.06,0000.06,17.6,24.3,,00.0,0632.5,31.0
2021-02-28T14:37:00Z,00000200,01000000,-000.07,0000.12,-000.20,-000.14,-000.13,0000.13,-000.12,0000.09,-000.25,17.6,24.3,,00.0,0632.6,31.0
2021-02-28T14:38:00Z,00000200,01000000,0000.01,-000.31,-000.30,0000.07,0000.06,-000.16,-000.26,-000.40,-000.02,17.6,24.3,,00.0,0632.6,31.0
2021-02-28T14:39:00Z,00000200,01000000,0000.08,-000.13,-000.11,0000.13,0000.23,0000.03,0000.32,0000.11,0000.03,17.6,24.3,,00.0,0632.6,31.0
2021-02-28T14:40:00Z,00000200,01000000,0000.19,-000.10,0000.07,0000.26,0000.02,0000.12,-000.24,-000.10,-000.17,17.5,24.3,,00.0,0632.6,31.0
2021-02-28T14:41:00Z,00000200,01000000,0000.14,0000.17,-000.00,0000.34,0000.08,0000.06,0000.15,0000.22,0000.26,17.5,24.3,,00.0,0632.6,31.0
2021-02-28T14:42:00Z,00000200,01000000,-000.22,0000.10,-000.01,0000.33,0000.33,0000.24,0000.36,0000.28,-000.05,17.5,24.3,,00.0,0632.7,31.0
2021-02-28T14:43:00Z,00000200,01000000,0000.07,-000.05,0000.13,0000.60,-000.20,-000.01,-000.58,-000.31,-000.24,17.5,24.3,,00.0,0632.7,31.0
2021-02-28T14:44:00Z,00000200,01000000,-000.38,0000.18,-000.06,-000.03,0000.25,-000.36,0000.32,0000.19,0000.26,17.5,24.3,,00.0,0632.7,31.0
2021-02-28T14:45:00Z,00000200,01000000,-000.44,0000.02,-000.12,0000.06,0000.05,-000.05,0000.33,-000.16,0000.07,17.5,24.3,,00.0,0632.7,31.0
2021-02-28T14:46:00Z,00000200,01000000,-000.17,0000.10,-000.20,-000.06,-000.10,-000.04,-000.45,0000.07,-000.18,17.5,24.3,,00.0,0632.7,31.0
2021-02-28T14:47:00Z,00000200,01000000,-000.11,0000.15,-000.10,0000.31,-000.07,-000.05,0000.51,-000.11,0000.17,17.4,24.3,,00.0,0632.6,31.0
2021-02-28T14:48:00Z,00000200,01000000,-000.08,0000.14,0000.10,0000.25,0000.04,-000.03,-000.37,0000.04,-000.07,17.4,24.2,,00.0,0632.6,31.0
2021-02-28T14:49:00Z,00000200,01000000,-000.16,-000.22,-000.02,0000.25,0000.10,0000.10,-000.48,-000.39,-000.19,17.4,24.2,,00.0,0632.7,31.0
2021-02-28T14:50:00Z,00000200,01000000,0000.41,0000.05,0000.09,0000.32,0000.06,-000.23,-000.04,0000.14,0000.02,17.4,24.2,,00.0,0632.7,31.0
2021-02-28T14:51:00Z,00000200,01000000,-000.68,0000.19,-000.03,-000.08,0000.09,-000.01,0000.09,-000.26,-000.12,17.4,24.2,,00.0,0632.8,31.0
2021-02-28T14:52:00Z,00000200,01000000,0000.01,0000.06,-000.07,0000.20,-000.04,-000.14,-000.20,-000.27,0000.06,17.4,24.2,,00.0,0632.8,31.0
2021-02-28T14:53:00Z,00000200,01000000,-000.40,0000.10,-000.02,0000.36,-000.02,0000.10,-000.38,-000.35,-000.41,17.4,24.2,,00.0,0632.8,31.0
2021-02-28T14:54:00Z,00000200,01000000,-000.27,0000.09,0000.13,0000.13,0000.02,-000.10,0000.13,0000.30,0000.19,17.3,24.2,,00.0,0632.8,31.0
2021-02-28T14:55:00Z,00000200,01000000,-000.39,-000.03,-000.11,0000.34,0000.02,-000.10,-000.05,-000.05,-000.05,17.3,24.2,,00.0,0632.8,31.0
2021-02-28T14:56:00Z,00000200,01000000,-000.36,-000.09,-000.02,0000.46,0000.13,0000.06,-000.04,0000.32,-000.19,17.3,24.2,,00.0,0632.8,31.0
2021-02-28T14:57:00Z,00000200,41000000,,,,,,,0000.98,0000.38,0000.65,17.4,24.2,,00.0,0632.8,31.0
2021-02-28T14:58:00Z,00000200,61000000,,,,,,,-000.85,-000.75,-000.62,17.0,24.3,,00.0,0631.9,31.0
2021-02-28T14:59:00Z,00000200,21000000,,,,,,,-000.61,-000.34,0000.02,17.0,24.4,,00.0,0631.9,31.0
